This is the latest recevied weather packets stored in our database for station/object SV5BYP-10. If no packets are shown the sender has not sent any weather packets the latest 10 day(s).
| Time | Temp. | Humidity | Pressure | Rain* | Wind** | Luminosity | Snow |
|---|---|---|---|---|---|---|---|
| 1777969934 | 21.67° C | 43% | 1015.5 hPa | - | - | - | - |
| 1777969334 | 20.56° C | 45% | 1015.5 hPa | - | - | - | - |
| 1777968733 | 21.11° C | 43% | 1015.6 hPa | - | - | - | - |
| 1777968133 | 21.11° C | 43% | 1015.6 hPa | - | - | - | - |
| 1777967533 | 21.11° C | 44% | 1015.6 hPa | - | - | - | - |
| 1777966933 | 21.11° C | 44% | 1015.6 hPa | - | - | - | - |
| 1777966332 | 21.11° C | 44% | 1015.3 hPa | - | - | - | - |
| 1777965732 | 20.56° C | 44% | 1015.4 hPa | - | - | - | - |
| 1777965131 | 20° C | 44% | 1014.4 hPa | - | - | - | - |
| 1777964531 | 20.56° C | 44% | 1015.3 hPa | - | - | - | - |
| 1777963931 | 20.56° C | 44% | 1015.3 hPa | - | - | - | - |
| 1777963331 | 21.11° C | 44% | 1015.2 hPa | - | - | - | - |
| 1777962730 | 21.11° C | 44% | 1015.3 hPa | - | - | - | - |
| 1777962130 | 20° C | 44% | 1015.3 hPa | - | - | - | - |
| 1777961530 | 20.56° C | 44% | 1015.4 hPa | - | - | - | - |
| 1777960930 | 20.56° C | 45% | 1015.3 hPa | - | - | - | - |
| 1777960330 | 20.56° C | 45% | 1015.3 hPa | - | - | - | - |
| 1777959730 | 20° C | 46% | 1015.1 hPa | - | - | - | - |
| 1777959129 | 20° C | 46% | 1015.1 hPa | - | - | - | - |
| 1777958529 | 19.44° C | 47% | 1015.2 hPa | - | - | - | - |
| 1777957929 | 18.89° C | 48% | 1015.2 hPa | - | - | - | - |
| 1777957329 | 18.89° C | 49% | 1015.1 hPa | - | - | - | - |
| 1777956729 | 18.89° C | 49% | 1015 hPa | - | - | - | - |
| 1777956129 | 18.33° C | 48% | 1015 hPa | - | - | - | - |
| 1777955528 | 18.33° C | 48% | 1014.9 hPa | - | - | - | - |
* Rain since midnight (hover to see other rain measurements)
** Current wind speed in m/s (hover to see current wind gust speed)